Regional Weather Roundup
Issued by NWS Cleveland, OH

Home | Current Version | Previous Version | Text Only | Print | Product List | Glossary Off
Versions: 1 2 3 4 5 6 7 8 9 10 11 12 13 14 15 16 17 18 19 20 21 22 23 24 25 26 27 28 29 30 31 32 33 34 35 36 37 38 39 40 41 42 43 44 45 46 47 48 49 50

000
ASUS41 KCLE 230100
RWRCLE
OHIO REGIONAL WEATHER ROUNDUP
NATIONAL WEATHER SERVICE WILMINGTON, OH
800 PM EST WED FEB 22 2017

NOTE: "FAIR" INDICATES FEW OR NO CLOUDS BELOW 12,000 FEET WITH NO
SIGNIFICANT WEATHER AND/OR OBSTRUCTIONS TO VISIBILITY.

OHZ001>008-015>018-024>027-034-035-043-044-230200-
   NORTHWEST OHIO

CITY           SKY/WX    TMP DP  RH WIND       PRES   REMARKS
DEFIANCE       CLOUDY    59  51  75 S8        29.76S
FINDLAY        CLOUDY    60  53  77 S12       29.78R
TOLEDO EXPRESS CLOUDY    59  55  87 S7        29.76S
TOLEDO EXEC    CLOUDY    59  55  87 S9        29.77S
LIMA           CLOUDY    59  55  87 S9        29.79R
$$

OHZ009>014-019>023-028>033-038-089-230200-
   NORTHEAST OHIO

CITY           SKY/WX    TMP DP  RH WIND       PRES   REMARKS
CLE-HOPKINS    CLOUDY    60  52  74 S9        29.83R
CLE-LAKEFRONT  CLOUDY    60  52  74 S13       29.80R
CUY CO. ARPT   CLOUDY    61  54  77 S12       29.82R
LORAIN-ELYRIA  CLOUDY    58  51  78 S10       29.81S
ASHTABULA      CLOUDY    56  53  90 S6        29.82S
AKRON-CANTON   CLOUDY    57  51  80 SW8       29.84S
WOOSTER        NOT AVBL
MANSFIELD      CLOUDY    56  53  90 S12       29.83S
YOUNGSTOWN     CLOUDY    56  52  86 SW5       29.84S
$$

OHZ042-051>053-060>062-070>072-077>081-230200-
  SOUTHWEST OHIO

CITY           SKY/WX    TMP DP  RH WIND       PRES   REMARKS
CINC-COVINGTON FAIR      61  55  81 S6        29.82R
CINC-LUNKEN    CLOUDY    58  57  97 CALM      29.83R
HAMILTON       CLOUDY    60  58  92 CALM      29.83R
DAYTON         NOT AVBL
WRIGHT-PAT AFB NOT AVBL
DAYTON GENERAL CLOUDY    59  56  89 S7        29.82R
WILMINGTON     CLOUDY    57  55  93 SE5       29.83R
$$

OHZ036-037-039>041-045>050-054>059-063>069-073>076-082>088-230200-
  CENTRAL AND SOUTHEAST OHIO

CITY           SKY/WX    TMP DP  RH WIND       PRES   REMARKS
COLUMBUS       CLOUDY    59  54  83 S3        29.84R
OSU AIRPORT    CLOUDY    57  56  96 SE7       29.83S
BOLTON FIELD   NOT AVBL
RICKENBACK AFB NOT AVBL
NEWARK         CLOUDY    58  53  84 S8        29.85R
MARION         CLOUDY    56  54  93 S10       29.82F FOG
LANCASTER      CLOUDY    59  54  83 S3        29.86R
ZANESVILLE     CLOUDY    57  52  83 S6        29.86R
NEW PHILLY     CLOUDY    58  52  80 S5        29.86R
$$



USA.gov is the U.S. government's official web portal to all federal, state and local government web resources and services.